Regional Weather Roundup
Issued by NWS

Home | Current Version | Previous Version | Text Only | Print | Product List | Glossary On
Versions: 1 2 3 4 5 6 7 8 9 10 11 12 13 14 15 16 17 18 19 20 21 22 23 24 25 26 27 28 29 30 31 32 33 34 35 36 37 38 39 40 41 42 43 44 45 46 47 48 49 50
000
ASUS44 KEWX 190602
RWRTX
SOUTH TEXAS REGIONAL WEATHER ROUNDUP
NATIONAL WEATHER SERVICE AUSTIN/SAN ANTONIO TX
100 AM CDT SAT APR 19 2014

NOTE: "FAIR" INDICATED FEW OR NO CLOUDS BELOW 12,000 FEET WITH NO
SIGNIFICANT WEATHER AND/OR OBSTRUCTIONS TO VISIBILITY.

* - THESE STATIONS ARE NOT NWS OR FAA STATIONS...AND ARE NOT SUBJECT
    TO NWS AND FAA QUALITY CONTROL.

TXZ171-172-183>190-190700-
TEXAS HILL COUNTRY AND EDWARDS PLATEAU

CITY           SKY/WX    TMP DP  RH WIND       PRES   REMARKS
JUNCTION       FAIR      63  52  67 E5        30.14S
6HR MIN TEMP:  63; 6HR MAX TEMP:  78;

*LLANO         MOCLDY    57  52  82 CALM      30.18S
BURNET         FAIR      60  50  69 E3        30.17S
6HR MIN TEMP:  60; 6HR MAX TEMP:  72;

*HORSESHOE BAY FAIR      60  51  71 S3        30.15R
*KERRVILLE     CLOUDY    64  54  70 SE7       30.15F
*FREDERICKSBRG CLOUDY    61  52  72 CALM      30.16S
*ROCKSPRINGS   FAIR      63  50  63 SE7       30.15S
*BOERNE STAGE  MOCLDY    54  48  82 CALM      30.16F
*CASTROVILLE   FAIR      64  55  73 E5        30.15F
HONDO          FAIR      67  56  67 E10       30.14F
6HR MIN TEMP:  67; 6HR MAX TEMP:  79;

*UVALDE        FAIR      68  56  66 E9        30.12S
DEL RIO        FAIR      71  52  50 E10       30.06F
6HR MIN TEMP:  70; 6HR MAX TEMP:  79;

LAUGHLIN AFB   NOT AVBL
CARRIZO SPRGS  MOCLDY    70  57  64 SE12G17   30.09S
$$

TXZ173-191>194-202-209-217>225-228-190700-
CENTRAL AND SOUTH CENTRAL TEXAS

CITY           SKY/WX    TMP DP  RH WIND       PRES   REMARKS
GEORGETOWN     FAIR      55  52  88 CALM      30.15S
6HR MIN TEMP:  54; 6HR MAX TEMP:  73;

AUSTIN/BERGSTM FAIR      55  53  93 CALM      30.15R
6HR MIN TEMP:  54; 6HR MAX TEMP:  75;

AUSTIN/MABRY   FAIR      60  54  80 CALM      30.16R
6HR MIN TEMP:  60; 6HR MAX TEMP:  74;

*AUSTIN/EXEC   MOCLDY    59  55  88 CALM      30.15S
*LAGO VISTA    FAIR      63  53  70 SE3       30.16S
SAN MARCOS     FAIR      55  48  76 W3        30.16F
6HR MIN TEMP:  55; 6HR MAX TEMP:  75;

NEW BRAUNFELS  FAIR      60  54  80 E5        30.13S
6HR MIN TEMP:  59; 6HR MAX TEMP:  75;

RANDOLPH AFB   NOT AVBL
PT SAN ANTONIO NOT AVBL
SAN ANTONIO    FAIR      63  55  75 E6        30.14S
6HR MIN TEMP:  63; 6HR MAX TEMP:  75;

STINSON FIELD  FAIR      63  56  78 SE3       30.12S
6HR MIN TEMP:  61; 6HR MAX TEMP:  78;

*PLEASANTON    FAIR      63  55  73 CALM      30.14S HAZE
*LA GRANGE     FAIR      58  56  92 CALM      30.12F
*GIDDINGS      FAIR      56  54  90 CALM      30.18S
*GONZALES      FAIR      61  56  83 S5        30.15R
6HR MIN TEMP:  60; 6HR MAX TEMP:  75;

$$

TXZ163>164-176>182-195>201-210>213-226-227-235-190700-
SOUTHEAST TEXAS

CITY           SKY/WX    TMP DP  RH WIND       PRES   REMARKS
COLLEGE STN    FAIR      61  54  77 E6        30.13F
6HR MIN TEMP:  61; 6HR MAX TEMP:  74; 6HR PCP: TRACE;

*BRYAN         FAIR      57  54  91 CALM      30.14S
*CALDWELL      FAIR      55  55 100 CALM      30.17F
*CROCKETT      FAIR      63  55  77 E3        30.19S
*BRENHAM       FAIR      58  53  85 CALM      30.15F
HUNTSVILLE     FAIR      57  53  86 E3        30.14F
6HR MIN TEMP:  57; 6HR MAX TEMP:  73;

CONROE         FAIR      52  51  97 CALM      30.16R
6HR MIN TEMP:  52; 6HR MAX TEMP:  73;

HOUSTON BUSH   FAIR      61  54  77 NE3       30.14S
6HR MIN TEMP:  60; 6HR MAX TEMP:  76;

HOUSTON HOBBY  FAIR      61  57  87 CALM      30.14R
6HR MIN TEMP:  61; 6HR MAX TEMP:  76;

*HOUSTON SW AP FAIR      57  55  95 CALM      30.15R
PEARLAND       FAIR      59  55  87 CALM      30.16R
6HR MIN TEMP:  59; 6HR MAX TEMP:  76;

HOUSTON HOOKS  FAIR      58  55  90 CALM      30.14S
6HR MIN TEMP:  58; 6HR MAX TEMP:  77;

ELLINGTON FLD  PTCLDY    64  57  77 CALM      30.15R
SUGAR LAND     FAIR      59  55  87 S3        30.15R
6HR MIN TEMP:  58; 6HR MAX TEMP:  75;

*HOUSTON EXEC  FAIR      57  55  94 E5        30.15F
*CLEVELAND MUN FAIR      55  54  95 CALM      30.16R
*WHARTON       FAIR      60  57  91 SW3       30.15F
$$

TXZ214>216-236>238-190700-
THE UPPER TEXAS COAST

CITY           SKY/WX    TMP DP  RH WIND       PRES   REMARKS
*ORANGE        FAIR      60  57  88 CALM      30.16R
6HR MIN TEMP:  58; 6HR MAX TEMP:  73;

PORT ARTHUR    FAIR      63  56  78 NE7       30.14R
6HR MIN TEMP:  63; 6HR MAX TEMP:  74;

GALVESTON      FAIR      66  59  78 CALM      30.14S
6HR MIN TEMP:  64; 6HR MAX TEMP:  69;

ANGLETON       FAIR      56  54  93 CALM      30.14
6HR MIN TEMP:  55; 6HR MAX TEMP:  73;

*BAY CITY      FAIR      57  57  97 CALM      30.15S FOG
PALACIOS       FAIR      62  58  86 CALM      30.14S
6HR MIN TEMP:  61; 6HR MAX TEMP:  69;

$$

TXZ229>234-239>247-190700-
TEXAS COASTAL BEND AND RIO GRANDE PLAINS

CITY           SKY/WX    TMP DP  RH WIND       PRES   REMARKS
VICTORIA       FAIR      59  58  96 S3        30.15S
6HR MIN TEMP:  59; 6HR MAX TEMP:  76;

*BEEVILLE      FAIR      62  57  84 SE3       30.14S
ROCKPORT       FAIR      63  59  87 S5        30.14F
6HR MIN TEMP:  63; 6HR MAX TEMP:  70;

*PORT ARANSAS  FAIR      65  63  95 SE3       30.14S
*PORT LAVACA   FAIR      60  58  92 CALM      30.14F
*INGLESIDE     FAIR      64  62  92 SE3       30.14F
CORPUS CHRISTI MOCLDY    61  57  87 SE5       30.13F
6HR MIN TEMP:  60; 6HR MAX TEMP:  75;

CORPUS NAS     FAIR      65  62  90 SE8       30.13F
6HR MIN TEMP:  64; 6HR MAX TEMP:  70;

*ROBSTOWN      FAIR      61  56  83 E5        30.14F
ALICE          FAIR      58  54  86 E6        30.12F
6HR MIN TEMP:  58; 6HR MAX TEMP:  75;

KINGSVILLE NAS FAIR      60  56  86 E3        30.12F
6HR MIN TEMP:  59; 6HR MAX TEMP:  74;

COTULLA        FAIR      67  52  58 S7        30.11F
6HR MIN TEMP:  67; 6HR MAX TEMP:  81;

*FAITH RANCH   FAIR      68  59  73 SE9G24    30.10S
LAREDO         FAIR      68  53  58 SE9       30.14S
6HR MIN TEMP:  68; 6HR MAX TEMP:  81;

$$

TXZ248>255-190700-
DEEP SOUTH TEXAS

CITY           SKY/WX    TMP DP  RH WIND       PRES   REMARKS
BROWNSVILLE    FAIR      62  61  96 E6        30.12F
6HR MIN TEMP:  62; 6HR MAX TEMP:  72;

PORT ISABEL    FAIR      67  62  84 SE8       30.12F
6HR MIN TEMP:  67; 6HR MAX TEMP:  71;

*SOUTH PADRE   LGT RAIN  66  63  88 CALM      30.12F
HARLINGEN      FAIR      60  58  92 S5        30.12F
6HR MIN TEMP:  59; 6HR MAX TEMP:  72;

*HEBBRONVILLE  FAIR      62  56  80 SE6       30.13F
MCALLEN        FAIR      62  59  90 SE3       30.13F
6HR MIN TEMP:  62; 6HR MAX TEMP:  73;

*WESLACO       FAIR      62  59  88 SE3       30.13S
FALFURRIAS     FAIR      60  56  87 CALM      30.12F
EDINBURG       FAIR      62  59  88 SE3       30.13F
*ZAPATA        FAIR      66  58  76 SE8       30.11F
$$

TXZ213>215-236>238-242>244-246-247-251-254-255-190700-
CMAN STATIONS

STATION/POSITION TIME  TEMP    WIND        PRES    WAVE
                       AIR SEA DIR/SP/G            HT/PER
                 (UTC) (F)     (DEG/KT/KT) (MB)    (FT/S)
SABINE PASS      0500   63 66   20/  3/  4 1020.5
SEA RIM ST PARK  0500   63      10/  1/  2 1021.2
NORTH JETTY/GLS  0500   67 70  110/  4/  5   N/A
EAGLE POINT      0500   65 62   70/  3/  3 1020.1
MORGANS POINT    0500   67 64   CALM  /  1   N/A
MISSION/ARANSAS  0500   67     150/  9     1022.0
PORT O`CONNOR    0500          160/  6/  7   N/A
PORT ARANSAS     0500   67 67  140/  7/  8 1021.0
MALAQUITE BEACH  0500   67 69  130/  7/  9 1019.8
BAFFIN BAY       0500   66 68  130/  6/  9 1020.3
PORT ISABEL      0500   67 69  100/  6/ 10 1020.5
$$

GMZ080-GMZ150>470-190700-
OFFSHORE BUOY REPORTS




USA.gov is the U.S. government's official web portal to all federal, state and local government web resources and services.